JST770 YMML-YSSY

Flight info

Callsign JST770
Flight time N/A
Altitude 37000
Route ML H129 DOSEL Y59 RIVET
Aircraft A21N/M-SDE3FGHIRWY/LB1

Departure

Time 2026-05-04 08:08
Airport Melbourne Airport (YMML)

Arrival

Time N/A
Airport Sydney Kingsford Smith International Airport (YSSY)
Time Latitude Longitude Altitude Speed Heading
2026-05-04 07:44 -37.67521 144.84637 442 ft 0 kts 171°
2026-05-04 07:54 -37.67464 144.84659 442 ft 0 kts 258°
2026-05-04 07:55 -37.67469 144.84628 442 ft 2 kts 262°
2026-05-04 07:55 -37.67469 144.84624 442 ft 0 kts 261°
2026-05-04 08:02 -37.67471 144.84439 442 ft 11 kts 258°
2026-05-04 08:02 -37.67485 144.84323 442 ft 15 kts 262°
2026-05-04 08:02 -37.67502 144.84183 442 ft 13 kts 261°
2026-05-04 08:03 -37.67548 144.84123 442 ft 11 kts 171°
2026-05-04 08:03 -37.67638 144.84145 442 ft 15 kts 171°
2026-05-04 08:03 -37.67748 144.84168 442 ft 16 kts 171°
2026-05-04 08:03 -37.67824 144.84181 442 ft 0 kts 171°
2026-05-04 08:05 -37.67825 144.84183 442 ft 0 kts 171°
2026-05-04 08:05 -37.67833 144.84184 442 ft 1 kts 171°
2026-05-04 08:05 -37.67847 144.84184 442 ft 2 kts 184°
2026-05-04 08:05 -37.67865 144.84172 442 ft 3 kts 233°
2026-05-04 08:06 -37.67870 144.84140 442 ft 4 kts 264°
2026-05-04 08:06 -37.67871 144.84126 442 ft 0 kts 264°
2026-05-04 08:06 -37.67872 144.84116 442 ft 2 kts 264°
2026-05-04 08:06 -37.67874 144.84084 442 ft 5 kts 264°
2026-05-04 08:08 -37.65856 144.83624 899 ft 166 kts 353°
2026-05-04 08:08 -37.64794 144.83440 1921 ft 156 kts 351°
2026-05-04 08:10 -37.54259 144.85231 7233 ft 260 kts 19°
2026-05-04 08:11 -37.52618 144.86240 8078 ft 265 kts 19°
2026-05-04 08:11 -37.49249 144.88290 9680 ft 277 kts 19°
2026-05-04 08:11 -37.47514 144.89342 10435 ft 284 kts 19°
2026-05-04 08:12 -37.45690 144.90449 10926 ft 301 kts 21°
2026-05-04 08:12 -37.43848 144.91980 11324 ft 327 kts 34°
2026-05-04 08:12 -37.42245 144.94095 11911 ft 345 kts 47°
2026-05-04 08:12 -37.40820 144.96552 12734 ft 349 kts 50°
2026-05-04 08:13 -37.39420 144.99078 13517 ft 353 kts 50°
2026-05-04 08:13 -37.38025 145.01602 14256 ft 358 kts 50°
2026-05-04 08:13 -37.36600 145.04163 15009 ft 361 kts 50°
2026-05-04 08:13 -37.35138 145.06772 15772 ft 363 kts 50°
2026-05-04 08:14 -37.33679 145.09361 16508 ft 366 kts 50°
2026-05-04 08:14 -37.32203 145.11974 17227 ft 369 kts 50°
2026-05-04 08:14 -37.30713 145.14603 17928 ft 371 kts 50°
2026-05-04 08:16 -37.19935 145.33572 22277 ft 392 kts 46°
2026-05-04 08:16 -37.18337 145.36362 22847 ft 394 kts 46°
2026-05-04 08:16 -37.16744 145.39145 23392 ft 397 kts 46°
2026-05-04 08:17 -37.15118 145.41988 23924 ft 400 kts 45°
2026-05-04 08:17 -37.13488 145.44836 24424 ft 403 kts 45°
2026-05-04 08:17 -37.11847 145.47697 24899 ft 406 kts 45°
2026-05-04 08:17 -37.10200 145.50569 25357 ft 409 kts 45°
2026-05-04 08:19 -36.98268 145.71292 28221 ft 428 kts 44°
2026-05-04 08:19 -36.96522 145.74315 28575 ft 430 kts 44°
2026-05-04 08:20 -36.94751 145.77373 28927 ft 432 kts 44°
2026-05-04 08:20 -36.92990 145.80412 29280 ft 434 kts 44°
2026-05-04 08:20 -36.91220 145.83467 29603 ft 436 kts 44°
2026-05-04 08:20 -36.89422 145.86568 29916 ft 438 kts 44°
2026-05-04 08:21 -36.87631 145.89651 30233 ft 441 kts 44°
2026-05-04 08:21 -36.85837 145.92737 30529 ft 443 kts 44°
2026-05-04 08:21 -36.84008 145.95880 30818 ft 446 kts 44°
2026-05-04 08:21 -36.82179 145.99022 31172 ft 447 kts 44°
2026-05-04 08:22 -36.80369 146.02133 31561 ft 446 kts 44°
2026-05-04 08:22 -36.78533 146.05284 31934 ft 446 kts 44°
2026-05-04 08:24 -36.65724 146.27170 34060 ft 449 kts 44°
2026-05-04 08:24 -36.63873 146.30325 34388 ft 448 kts 44°
2026-05-04 08:24 -36.62034 146.33452 34685 ft 448 kts 44°
2026-05-04 08:24 -36.60196 146.36572 34952 ft 448 kts 44°
2026-05-04 08:25 -36.58361 146.39684 35202 ft 448 kts 44°
2026-05-04 08:25 -36.56515 146.42813 35424 ft 449 kts 44°
2026-05-04 08:25 -36.54647 146.45975 35617 ft 450 kts 44°
2026-05-04 08:25 -36.52785 146.49126 35798 ft 452 kts 44°
2026-05-04 08:26 -36.50922 146.52275 35980 ft 453 kts 44°
2026-05-04 08:27 -36.37724 146.74509 37030 ft 461 kts 44°
2026-05-04 08:28 -36.33923 146.80896 37038 ft 460 kts 44°
2026-05-04 08:28 -36.30114 146.87273 37039 ft 460 kts 44°
2026-05-04 08:29 -36.26292 146.93657 37039 ft 460 kts 44°
2026-05-04 08:31 -36.10889 147.19286 37040 ft 464 kts 43°
2026-05-04 08:33 -35.95415 147.44833 37040 ft 466 kts 44°
2026-05-04 08:35 -35.79832 147.70372 37039 ft 466 kts 43°
2026-05-04 08:35 -35.75908 147.76776 37039 ft 466 kts 43°
2026-05-04 08:37 -35.62234 147.98993 37065 ft 467 kts 43°
2026-05-04 08:38 -35.58318 148.05327 37066 ft 467 kts 43°
2026-05-04 08:38 -35.54385 148.11676 37066 ft 467 kts 43°
2026-05-04 08:40 -35.38672 148.36937 37066 ft 466 kts 43°
2026-05-04 08:41 -35.34752 148.43214 37066 ft 466 kts 43°
2026-05-04 08:41 -35.30806 148.49519 37066 ft 466 kts 43°
2026-05-04 08:42 -35.26888 148.55768 37066 ft 466 kts 43°
2026-05-04 08:42 -35.22936 148.62058 37066 ft 466 kts 43°
2026-05-04 08:43 -35.18978 148.68346 37064 ft 466 kts 43°
2026-05-04 08:43 -35.14832 148.74222 37059 ft 449 kts 29°
2026-05-04 08:43 -35.12301 148.76300 37065 ft 432 kts 17°
2026-05-04 08:44 -35.09531 148.77605 37065 ft 417 kts
2026-05-04 08:44 -35.06729 148.78108 37070 ft 406 kts 355°
2026-05-04 08:46 -34.87158 148.78227 37067 ft 402 kts 352°
2026-05-04 08:46 -34.81573 148.78210 37066 ft 402 kts 352°
2026-05-04 08:47 -34.75982 148.78191 37065 ft 402 kts 352°
2026-05-04 08:47 -34.70354 148.79181 37066 ft 421 kts
2026-05-04 08:48 -34.64924 148.82164 37022 ft 438 kts 22°
2026-05-04 08:48 -34.62447 148.84355 36721 ft 446 kts 30°
2026-05-04 08:48 -34.60202 148.87012 36172 ft 455 kts 39°
2026-05-04 08:48 -34.58255 148.90129 35623 ft 464 kts 48°
2026-05-04 08:49 -34.56709 148.93570 35081 ft 472 kts 57°
2026-05-04 08:50 -34.48793 149.15324 31331 ft 450 kts 43°
2026-05-04 08:50 -34.46668 149.17970 31071 ft 433 kts 30°
2026-05-04 08:51 -34.44179 149.19885 31062 ft 419 kts 17°
2026-05-04 08:51 -34.41478 149.21027 31065 ft 408 kts
2026-05-04 08:51 -34.35949 149.22288 31062 ft 404 kts
2026-05-04 08:52 -34.30405 149.23386 31061 ft 404 kts
2026-05-04 08:52 -34.24903 149.24499 31055 ft 412 kts 11°
2026-05-04 08:53 -34.22255 149.25948 31056 ft 428 kts 23°
2026-05-04 08:54 -34.16728 149.50529 31044 ft 506 kts 112°
2026-05-04 08:55 -34.20275 149.57851 31042 ft 509 kts 122°
2026-05-04 08:55 -34.24160 149.65008 31038 ft 509 kts 122°
2026-05-04 08:57 -34.37670 149.90002 31030 ft 501 kts 111°
2026-05-04 09:01 -34.16275 150.31291 29161 ft 428 kts 32°
2026-05-04 09:01 -34.14086 150.33736 28600 ft 433 kts 41°
2026-05-04 09:01 -34.12468 150.36859 28006 ft 449 kts 60°
2026-05-04 09:01 -34.11410 150.40443 27545 ft 449 kts 65°
2026-05-04 09:02 -34.10515 150.44052 27042 ft 447 kts 68°
2026-05-04 09:02 -34.09734 150.47681 26525 ft 445 kts 69°
2026-05-04 09:02 -34.09005 150.51250 26028 ft 441 kts 69°
2026-05-04 09:02 -34.08265 150.54811 25534 ft 436 kts 69°
2026-05-04 09:03 -34.07514 150.58357 25040 ft 432 kts 69°
2026-05-04 09:03 -34.06770 150.61830 24554 ft 429 kts 69°
2026-05-04 09:03 -34.06017 150.65330 24064 ft 425 kts 68°
2026-05-04 09:03 -34.05281 150.68739 23582 ft 421 kts 68°
2026-05-04 09:04 -34.04540 150.72160 23095 ft 417 kts 68°
2026-05-04 09:04 -34.03810 150.75528 22603 ft 414 kts 68°
2026-05-04 09:04 -34.03083 150.78856 22153 ft 408 kts 69°
2026-05-04 09:04 -34.02334 150.82111 21780 ft 401 kts 68°
2026-05-04 09:05 -34.01569 150.85361 21316 ft 397 kts 68°
2026-05-04 09:05 -34.00825 150.88509 20805 ft 395 kts 68°
2026-05-04 09:05 -34.00068 150.91715 20279 ft 393 kts 68°